Location: Kolin
(50.0330°N, 15.2000°E)
Time: 10:48:38
(UTC+02:00)

ISS - Pass Details

Date: 23 May 2021
Orbit: 417 x 422 km, 51.6° (Epoch: 13 June)

Event Time Altitude Azimuth Distance (km) Brightness Sun altitude
Rises 23:46:59 0° 287° (WNW) 2,369 0.6 -17.6°
Reaches altitude 10° 23:49:06 10° 283° (WNW) 1,504 -0.6 -17.7°
Maximum altitude 23:52:24 53° 206° (SSW) 525 -3.6 -17.8°
Enters shadow 23:52:27 53° 203° (SSW) 525 -3.6 -17.8°
